Location: Newark
(39.0622°N, 106.5590°E)
Time: 07:21:55
(UTC+00:00)

Courier 1B - Pass Details

Date: 27 January 2020
Orbit: 962 x 1209 km, 28.3° (Epoch: 20 February)

Event Time Altitude Azimuth Distance (km) Brightness Sun altitude
Rises 00:05:09 0° 261° (W) 4,020 10.2 -0.8°
Reaches altitude 10° 00:08:49 10° 245° (WSW) 3,090 9.7 -0.2°
Maximum altitude 00:13:58 20° 203° (SSW) 2,479 9.7 0.7°
Drops below altitude 10° 00:19:12 10° 161° (SSE) 3,136 10.9 1.6°
Sets 00:22:59 0° 144° (SE) 4,098 12.0 2.3°
